Date String (YYYY-MM-DD hh:mm:ss) UTC,Instrument flags,absolute air pressure of the measurement (hPa),sample flow rate (lpm),inlet stack bypass flow (lpm),air temperature of the measurement (°C),ambient temperature measured by the external sensor (°C),aerosol sample conditioner tube jacket temperature (°C),OPC LED temperature (°C),internal box temperature (°C),relative humidity of the measurement (%),span deviation,mass concentration of particles derived from Lorenz-Mie calculation of OPC scattering (μg/m³),mass concentration of particles derived from Lorenz-Mie calculation of OPC scattering (μg/m³),mass concentration of particles derived from Lorenz-Mie calculation of OPC scattering (μg/m³)
DateTimeUTC,F1_M11,P_M11,Q1_M11,Q2_M11,T1_M11,T2_M11,T3_M11,T4_M11,T5_M11,U1_M11,ZSPAN_M11,X0_M11,X2_M11,X1_M11
2023-07-27 14:00:00,SystemResetWarning,0833.7,5.00,000.00,029.3,026.6,000.0,037.7,030.7,27.4,0000.0,0004.11,0002.52,0001.85
2023-07-27 14:01:00,SystemResetWarning,0833.7,5.00,000.00,029.3,027.0,000.0,037.7,030.8,26.5,0000.0,0003.98,0002.47,0001.85
2023-07-27 14:02:00,SystemResetWarning,0833.7,5.00,000.00,029.3,027.3,000.0,037.7,030.8,25.4,0000.0,0003.91,0002.45,0001.86
2023-07-27 14:03:00,SystemResetWarning,0833.7,5.00,000.00,029.3,027.5,000.0,037.7,030.9,23.9,0000.0,0003.96,0002.45,0001.87
2023-07-27 14:04:00,SystemResetWarning,0833.7,5.00,000.00,029.3,027.7,000.0,037.8,031.0,27.7,0000.0,0004.90,0002.47,0001.88
2023-07-27 14:05:00,SystemResetWarning,0833.7,5.00,000.00,029.4,027.9,000.0,037.8,031.0,28.8,0000.0,0005.44,0002.50,0001.88
2023-07-27 14:06:00,SystemResetWarning,0833.7,5.00,000.00,029.4,028.1,000.0,037.8,031.1,29.5,0000.0,0005.43,0002.50,0001.88
2023-07-27 14:07:00,SystemResetWarning,0833.7,4.99,000.00,029.4,028.1,000.0,037.8,031.1,30.8,0000.0,0005.43,0002.56,0001.89
2023-07-27 14:08:00,SystemResetWarning,0833.7,4.98,000.00,029.4,026.8,000.0,037.7,030.9,35.1,0000.0,0005.65,0002.67,0001.90
2023-07-27 14:09:00,SystemResetWarning,0833.7,5.05,000.00,029.5,025.5,000.0,037.6,030.8,33.6,0000.0,0005.74,0002.68,0001.91
2023-07-27 14:10:00,SystemResetWarning,0833.7,4.96,000.00,029.6,025.5,000.0,037.5,030.8,33.0,0000.0,0005.85,0002.73,0001.92
2023-07-27 14:11:00,SystemResetWarning,0833.7,5.02,000.00,029.6,025.8,000.0,037.6,030.7,32.8,0000.0,0005.85,0002.72,0001.90
2023-07-27 14:12:00,SystemResetWarning,0833.8,5.00,000.00,029.6,026.2,000.0,037.7,030.7,31.5,0000.0,0005.93,0002.74,0001.89
2023-07-27 14:13:00,SystemResetWarning,0833.8,4.99,000.00,029.6,026.6,000.0,037.7,030.8,32.0,0000.0,0006.40,0002.80,0001.90
2023-07-27 14:14:00,SystemResetWarning,0833.8,5.01,000.00,029.6,027.0,000.0,037.8,030.8,30.8,0000.0,0006.45,0002.80,0001.90
2023-07-27 14:15:00,SystemResetWarning,0833.8,4.99,000.00,029.7,027.2,000.0,037.8,030.9,33.7,0000.0,0005.72,0002.84,0001.92
2023-07-27 14:16:00,SystemResetWarning,0833.8,5.02,000.00,029.7,027.5,000.0,037.9,031.0,33.2,0000.0,0005.24,0002.83,0001.92
2023-07-27 14:17:00,SystemResetWarning,0833.8,4.99,000.00,029.9,027.7,000.0,037.9,031.1,32.2,0000.0,0006.10,0002.82,0001.92
2023-07-27 14:18:00,SystemResetWarning,0833.8,4.99,000.00,029.9,027.9,000.0,037.9,031.1,31.2,0000.0,0006.14,0002.82,0001.92
2023-07-27 14:19:00,SystemResetWarning,0833.8,5.00,000.00,030.0,028.0,000.0,038.0,031.2,29.9,0000.0,0005.94,0002.73,0001.92
2023-07-27 14:20:00,SystemResetWarning,0833.8,4.99,000.00,030.0,027.2,000.0,037.9,031.1,30.0,0000.0,0007.08,0002.77,0001.91
2023-07-27 14:21:00,SystemResetWarning,0833.7,5.00,000.00,030.0,025.7,000.0,037.9,030.7,31.9,0000.0,0007.31,0002.77,0001.91
2023-07-27 14:22:00,SystemResetWarning,0833.8,5.02,000.00,029.9,025.4,000.0,037.8,030.7,31.1,0000.0,0007.33,0002.78,0001.93
2023-07-27 14:23:00,SystemResetWarning,0833.8,5.00,000.00,029.8,025.7,000.0,037.8,030.6,29.7,0000.0,0007.36,0002.82,0001.96
2023-07-27 14:24:00,SystemResetWarning,0833.8,5.00,000.00,029.8,026.1,000.0,037.9,030.6,28.4,0000.0,0007.39,0002.81,0001.96
2023-07-27 14:25:00,SystemResetWarning,0833.8,5.00,000.00,029.7,026.5,000.0,037.9,030.7,29.1,0000.0,0007.71,0002.86,0001.98
2023-07-27 14:26:00,SystemResetWarning,0833.8,5.00,000.00,029.7,026.9,000.0,038.0,030.8,29.5,0000.0,0007.76,0002.87,0001.99
2023-07-27 14:27:00,SystemResetWarning,0833.8,5.01,000.00,029.7,027.2,000.0,038.0,030.9,29.8,0000.0,0007.76,0002.90,0002.01
2023-07-27 14:28:00,SystemResetWarning,0833.8,5.00,000.00,029.8,027.4,000.0,038.0,030.9,32.1,0000.0,0007.35,0002.94,0002.03
2023-07-27 14:29:00,SystemResetWarning,0833.8,5.00,000.00,029.8,027.7,000.0,038.0,031.0,32.4,0000.0,0007.35,0002.96,0002.04
2023-07-27 14:30:00,SystemResetWarning,0833.8,5.00,000.00,029.8,027.9,000.0,038.1,031.0,30.2,0000.0,0007.43,0003.06,0002.06
2023-07-27 14:31:00,SystemResetWarning,0833.8,5.00,000.00,029.8,027.9,000.0,038.1,031.1,29.0,0000.0,0006.62,0003.04,0002.09
2023-07-27 14:32:00,SystemResetWarning,0833.8,4.99,000.00,029.8,026.7,000.0,037.9,031.0,29.4,0000.0,0006.21,0003.01,0002.11
2023-07-27 14:33:00,SystemResetWarning,0833.7,5.00,000.00,029.8,025.5,000.0,037.9,030.8,29.9,0000.0,0006.34,0003.05,0002.11
2023-07-27 14:34:00,SystemResetWarning,0833.8,5.01,000.00,029.7,025.5,000.0,037.8,030.7,29.1,0000.0,0006.69,0003.11,0002.12
2023-07-27 14:35:00,SystemResetWarning,0833.8,5.00,000.00,029.6,025.9,000.0,037.9,030.6,29.1,0000.0,0006.48,0003.12,0002.13
2023-07-27 14:36:00,SystemResetWarning,0833.8,4.99,000.00,029.6,026.3,000.0,037.9,030.7,28.1,0000.0,0007.13,0003.12,0002.14
2023-07-27 14:37:00,SystemResetWarning,0833.8,5.00,000.00,029.6,026.6,000.0,037.9,030.7,25.9,0000.0,0007.17,0003.10,0002.14
2023-07-27 14:38:00,SystemResetWarning,0833.8,5.00,000.00,029.6,027.0,000.0,037.9,030.8,26.6,0000.0,0007.02,0003.06,0002.14
2023-07-27 14:39:00,SystemResetWarning,0833.8,5.01,000.00,029.6,027.3,000.0,037.9,030.9,27.5,0000.0,0006.94,0003.06,0002.15
2023-07-27 14:40:00,SystemResetWarning,0833.8,5.00,000.00,029.6,027.5,000.0,037.9,030.9,29.1,0000.0,0006.84,0003.01,0002.13
2023-07-27 14:41:00,SystemResetWarning,0833.8,5.00,000.00,029.6,027.7,000.0,038.0,031.0,29.9,0000.0,0007.25,0002.95,0002.13
2023-07-27 14:42:00,SystemResetWarning,0833.7,4.98,000.00,029.6,027.9,000.0,038.0,031.0,27.4,0000.0,0007.52,0002.94,0002.13
2023-07-27 14:43:00,SystemResetWarning,0833.8,5.00,000.00,029.7,027.1,000.0,037.9,030.9,37.7,0000.0,0007.52,0002.96,0002.12
2023-07-27 14:44:00,SystemResetWarning,0833.8,5.02,000.00,029.8,025.7,000.0,037.8,030.8,40.7,0000.0,0007.44,0002.91,0002.12
2023-07-27 14:45:00,SystemResetWarning,0833.8,5.01,000.00,030.0,025.5,000.0,037.7,030.8,33.6,0000.0,0007.37,0002.84,0002.11
2023-07-27 14:46:00,SystemResetWarning,0833.8,4.97,000.00,030.2,025.8,000.0,037.8,030.8,27.1,0000.0,0007.66,0002.85,0002.12
2023-07-27 14:47:00,SystemResetWarning,0833.8,5.02,000.00,030.3,026.2,000.0,037.8,030.8,25.9,0000.0,0006.72,0002.84,0002.13
2023-07-27 14:48:00,SystemResetWarning,0833.8,5.00,000.00,030.3,026.6,000.0,037.9,030.9,26.9,0000.0,0006.55,0002.83,0002.12
2023-07-27 14:49:00,SystemResetWarning,0833.8,5.00,000.00,030.4,026.9,000.0,038.0,030.9,24.4,0000.0,0006.46,0002.83,0002.12
2023-07-27 14:50:00,SystemResetWarning,0833.7,5.00,000.00,030.4,027.2,000.0,038.1,031.0,24.2,0000.0,0006.45,0002.82,0002.12
2023-07-27 14:51:00,SystemResetWarning,0833.7,5.00,000.00,030.5,027.5,000.0,038.2,031.1,24.9,0000.0,0006.62,0002.87,0002.13
2023-07-27 14:52:00,SystemResetWarning,0833.8,5.00,000.00,030.5,027.7,000.0,038.3,031.1,26.4,0000.0,0006.32,0002.93,0002.14
2023-07-27 14:53:00,SystemResetWarning,0833.8,5.00,000.00,030.5,027.7,000.0,038.3,031.2,25.8,0000.0,0005.75,0002.97,0002.15
2023-07-27 14:54:00,SystemResetWarning,0833.8,4.99,000.00,030.5,026.4,000.0,038.2,031.1,22.3,0000.0,0005.82,0002.99,0002.16
2023-07-27 14:55:00,SystemResetWarning,0833.8,5.01,000.00,030.5,025.4,000.0,038.1,030.9,23.4,0000.0,0005.95,0003.03,0002.17
2023-07-27 14:56:00,SystemResetWarning,0833.8,5.01,000.00,030.4,025.5,000.0,038.1,030.8,25.8,0000.0,0005.91,0003.05,0002.17
2023-07-27 14:57:00,SystemResetWarning,0833.8,5.00,000.00,030.3,025.9,000.0,038.2,030.7,26.1,0000.0,0005.44,0003.02,0002.17
2023-07-27 14:58:00,SystemResetWarning,0833.8,5.00,000.00,030.2,026.3,000.0,038.2,030.7,28.4,0000.0,0005.02,0002.97,0002.16
2023-07-27 14:59:00,SystemResetWarning,0833.9,5.00,000.00,030.2,026.7,000.0,038.3,030.8,29.5,0000.0,0004.96,0002.97,0002.16
